Radiation Dose at Monitoring Post of Fukushima Daini Nuclear Power Station
Date,Time,MP-1(microSv/h),MP-2(microSv/h),MP-3(microSv/h),MP-4(microSv/h),MP-5(microSv/h),MP-6(microSv/h),MP-7(microSv/h),Wind Direction,Wind Velocity(m/s),Rain
2014/04/11,00:00,0.7,0.5,0.8,0.7,0.7,0.3,0.3,north,6.2,No
2014/04/11,00:10,0.7,0.5,0.8,0.7,0.7,0.3,0.3,north,7.0,No
2014/04/11,00:20,0.7,0.5,0.8,0.7,0.7,0.3,0.3,north,6.7,No
2014/04/11,00:30,0.7,0.5,0.8,0.7,0.7,0.3,0.3,north,7.8,No
2014/04/11,00:40,0.7,0.5,0.8,0.7,0.7,0.3,0.3,north,8.7,No
2014/04/11,00:50,0.7,0.5,0.8,0.7,0.7,0.3,0.3,north-northwest,8.0,No
2014/04/11,01:00,0.7,0.5,0.8,0.7,0.7,0.3,0.3,north-northwest,8.0,No
2014/04/11,01:10,0.7,0.5,0.8,0.7,0.7,0.3,0.3,northwest,4.5,No
2014/04/11,01:20,0.7,0.5,0.8,0.7,0.7,0.3,0.3,north-northwest,4.4,No
2014/04/11,01:30,0.7,0.5,0.8,0.7,0.7,0.3,0.3,north-northwest,3.9,No
2014/04/11,01:40,0.7,0.5,0.8,0.7,0.7,0.3,0.3,north-northwest,4.0,No
2014/04/11,01:50,0.7,0.5,0.8,0.7,0.7,0.3,0.3,north-northwest,5.1,No
2014/04/11,02:00,0.7,0.5,0.8,0.7,0.7,0.3,0.3,north-northwest,4.8,No
2014/04/11,02:10,0.7,0.5,0.8,0.7,0.7,0.3,0.3,northwest,4.7,No
2014/04/11,02:20,0.7,0.5,0.8,0.7,0.7,0.3,0.3,north,4.8,No
2014/04/11,02:30,0.7,0.5,0.8,0.7,0.7,0.3,0.3,north-northwest,3.3,No
2014/04/11,02:40,0.7,0.5,0.8,0.7,0.7,0.3,0.3,north-northwest,3.8,No
2014/04/11,02:50,0.7,0.5,0.8,0.7,0.7,0.3,0.3,north-northwest,3.7,No
2014/04/11,03:00,0.7,0.5,0.8,0.7,0.7,0.3,0.3,northwest,2.3,No
2014/04/11,03:10,0.7,0.5,0.8,0.7,0.7,0.3,0.3,west,1.9,No
2014/04/11,03:20,0.7,0.5,0.8,0.7,0.7,0.3,0.3,west-northwest,2.7,No
2014/04/11,03:30,0.7,0.5,0.8,0.7,0.7,0.3,0.3,west,1.8,No
2014/04/11,03:40,0.7,0.5,0.8,0.7,0.7,0.3,0.3,northwest,1.0,No
2014/04/11,03:50,0.7,0.5,0.8,0.7,0.7,0.3,0.3,northwest,0.5,No
2014/04/11,04:00,0.7,0.5,0.8,0.7,0.7,0.3,0.3,south-southwest,0.5,No
2014/04/11,04:10,0.7,0.5,0.8,0.7,0.7,0.3,0.3,south-southwest,1.1,No
2014/04/11,04:20,0.7,0.5,0.8,0.7,0.7,0.3,0.3,south-southwest,1.1,No
2014/04/11,04:30,0.7,0.5,0.8,0.7,0.7,0.3,0.3,southwest,1.6,No
2014/04/11,04:40,0.7,0.5,0.8,0.7,0.7,0.3,0.3,southwest,1.0,No
2014/04/11,04:50,0.7,0.5,0.8,0.7,0.7,0.3,0.3,west-northwest,1.5,No
2014/04/11,05:00,0.7,0.5,0.8,0.7,0.7,0.3,0.3,west-northwest,1.9,No
2014/04/11,05:10,0.7,0.5,0.8,0.7,0.7,0.3,0.3,west,2.9,No
2014/04/11,05:20,0.7,0.5,0.8,0.7,0.7,0.3,0.3,west,3.7,No
2014/04/11,05:30,0.7,0.5,0.8,0.7,0.7,0.3,0.3,west,5.8,No
2014/04/11,05:40,0.7,0.5,0.8,0.7,0.7,0.3,0.3,west,7.7,No
2014/04/11,05:50,0.7,0.5,0.8,0.7,0.7,0.3,0.3,west,9.4,No
2014/04/11,06:00,0.7,0.5,0.8,0.7,0.7,0.3,0.3,west,4.2,No
2014/04/11,06:10,0.7,0.5,0.8,0.7,0.7,0.3,0.3,west,6.0,No
2014/04/11,06:20,0.7,0.5,0.8,0.7,0.7,0.3,0.3,west,7.5,No
2014/04/11,06:30,0.7,0.5,0.8,0.7,0.7,0.3,0.3,west,6.2,No
2014/04/11,06:40,0.7,0.5,0.8,0.7,0.7,0.3,0.3,west-northwest,2.2,No
2014/04/11,06:50,0.7,0.5,0.8,0.7,0.7,0.3,0.3,west-northwest,2.2,No
2014/04/11,07:00,0.7,0.5,0.8,0.7,0.7,0.3,0.3,west,7.1,No
2014/04/11,07:10,0.7,0.5,0.8,0.7,0.7,0.3,0.3,west-northwest,9.5,No
2014/04/11,07:20,0.7,0.5,0.8,0.7,0.7,0.3,0.3,west,8.4,No
2014/04/11,07:30,0.7,0.5,0.8,0.7,0.7,0.3,0.3,west,8.0,No
2014/04/11,07:40,0.7,0.5,0.8,0.7,0.7,0.3,0.3,west,5.7,No
2014/04/11,07:50,0.7,0.5,0.8,0.7,0.7,0.3,0.3,west,5.6,No
2014/04/11,08:00,0.7,0.5,0.8,0.7,0.7,0.3,0.3,west,5.6,No
2014/04/11,08:10,0.7,0.5,0.8,0.7,0.7,0.3,0.3,west,7.5,No
2014/04/11,08:20,0.7,0.5,0.8,0.7,0.7,0.3,0.3,west,8.6,No
2014/04/11,08:30,0.7,0.5,0.8,0.7,0.7,0.3,0.3,west-northwest,5.9,No
2014/04/11,08:40,0.7,0.5,0.8,0.7,0.7,0.3,0.3,west-northwest,5.4,No
2014/04/11,08:50,0.7,0.5,0.8,0.7,0.7,0.3,0.3,northwest,5.3,No
2014/04/11,09:00,0.7,0.5,0.8,0.7,0.7,0.3,0.3,west-northwest,5.1,No
2014/04/11,09:10,0.7,0.5,0.8,0.7,0.7,0.3,0.3,west,4.8,No
2014/04/11,09:20,0.7,0.5,0.8,0.7,0.7,0.3,0.3,north-northwest,7.2,No
2014/04/11,09:30,0.7,0.5,0.8,0.7,0.7,0.3,0.3,northwest,4.6,No
2014/04/11,09:40,0.7,0.5,0.8,0.7,0.7,0.3,0.3,northwest,5.4,No
2014/04/11,09:50,0.7,0.5,0.8,0.7,0.7,0.3,0.3,west-northwest,3.6,No
2014/04/11,10:00,0.7,0.5,0.8,0.7,0.7,0.3,0.3,west-northwest,6.1,No
2014/04/11,10:10,0.7,0.5,0.8,0.7,0.7,0.3,0.3,west-northwest,5.9,No
2014/04/11,10:20,0.7,0.5,0.8,0.7,0.7,0.3,0.3,northwest,7.2,No
2014/04/11,10:30,0.7,0.5,0.8,0.7,0.7,0.3,0.3,west-northwest,8.6,No
2014/04/11,10:40,0.7,0.5,0.8,0.7,0.7,0.3,0.3,northwest,7.3,No
2014/04/11,10:50,0.7,0.5,0.8,0.7,0.7,0.3,0.3,northwest,7.5,No
2014/04/11,11:00,0.7,0.5,0.8,0.7,0.7,0.3,0.3,northwest,6.2,No
2014/04/11,11:10,0.7,0.5,0.8,0.7,0.7,0.3,0.3,west-northwest,6.4,No
2014/04/11,11:20,0.7,0.5,0.8,0.7,0.7,0.3,0.3,west-northwest,9.5,No
2014/04/11,11:30,0.7,0.5,0.8,0.7,0.7,0.3,0.3,west-northwest,9.9,No
2014/04/11,11:40,0.7,0.5,0.8,0.7,0.7,0.3,0.3,west-northwest,8.2,No
2014/04/11,11:50,0.7,0.5,0.8,0.7,0.7,0.3,0.3,northwest,8.9,No
2014/04/11,12:00,0.7,0.5,0.8,0.7,0.7,0.3,0.3,west-northwest,8.4,No
2014/04/11,12:10,0.7,0.5,0.8,0.7,0.7,0.3,0.3,west-northwest,9.8,No
2014/04/11,12:20,0.7,0.5,0.8,0.7,0.7,0.3,0.3,west-northwest,7.4,No
2014/04/11,12:30,0.7,0.5,0.8,0.7,0.7,0.3,0.3,northwest,7.3,No
2014/04/11,12:40,0.7,0.5,0.8,0.7,0.7,0.3,0.3,west-northwest,9.1,No
2014/04/11,12:50,0.7,0.5,0.8,0.7,0.7,0.3,0.3,northwest,7.1,No
2014/04/11,13:00,0.7,0.5,0.8,0.7,0.7,0.3,0.3,northwest,6.6,No
2014/04/11,13:10,0.7,0.5,0.8,0.7,0.7,0.3,0.3,northwest,6.2,No
2014/04/11,13:20,0.7,0.5,0.8,0.7,0.7,0.3,0.3,northwest,6.7,No
2014/04/11,13:30,0.7,0.5,0.8,0.7,0.7,0.3,0.3,west,8.2,No
2014/04/11,13:40,0.7,0.5,0.8,0.7,0.7,0.3,0.3,northwest,6.4,No
2014/04/11,13:50,0.7,0.5,0.8,0.7,0.7,0.3,0.3,west-northwest,6.2,No
2014/04/11,14:00,0.7,0.5,0.8,0.7,0.7,0.3,0.3,northwest,5.9,No
2014/04/11,14:10,0.7,0.5,0.8,0.7,0.7,0.3,0.3,northwest,7.2,No
2014/04/11,14:20,0.7,0.5,0.8,0.7,0.7,0.3,0.3,northwest,3.9,No
2014/04/11,14:30,0.7,0.5,0.8,0.7,0.7,0.3,0.3,northwest,4.6,No
2014/04/11,14:40,0.7,0.5,0.8,0.7,0.7,0.3,0.3,west-northwest,7.7,No
2014/04/11,14:50,0.7,0.5,0.8,0.7,0.7,0.3,0.3,west,9.4,No
2014/04/11,15:00,0.7,0.5,0.8,0.7,0.7,0.3,0.3,west-northwest,8.9,No
2014/04/11,15:10,0.7,0.5,0.8,0.7,0.7,0.3,0.3,northwest,6.8,No
2014/04/11,15:20,0.7,0.5,0.8,0.7,0.7,0.3,0.3,northwest,6.9,No
2014/04/11,15:30,0.7,0.5,0.8,0.7,0.7,0.3,0.3,west-northwest,5.2,No
2014/04/11,15:40,0.7,0.5,0.8,0.7,0.7,0.3,0.3,northwest,6.9,No
2014/04/11,15:50,0.7,0.5,0.8,0.7,0.7,0.3,0.3,west-northwest,5.0,No
2014/04/11,16:00,0.7,0.5,0.8,0.7,0.7,0.3,0.3,west,5.6,No
2014/04/11,16:10,0.7,0.5,0.8,0.7,0.7,0.3,0.3,northwest,5.2,No
2014/04/11,16:20,0.7,0.5,0.8,0.7,0.7,0.3,0.3,west-northwest,6.7,No
2014/04/11,16:30,0.7,0.5,0.8,0.7,0.7,0.3,0.3,west-northwest,7.6,No
2014/04/11,16:40,0.7,0.5,0.8,0.7,0.7,0.3,0.3,west-northwest,7.6,No
2014/04/11,16:50,0.7,0.5,0.8,0.7,0.7,0.3,0.3,west-northwest,5.6,No
2014/04/11,17:00,0.7,0.5,0.8,0.7,0.7,0.3,0.3,west-northwest,5.6,No
2014/04/11,17:10,0.7,0.5,0.8,0.7,0.7,0.3,0.3,west-northwest,4.2,No
2014/04/11,17:20,0.7,0.5,0.8,0.7,0.7,0.3,0.3,west,3.6,No
2014/04/11,17:30,0.7,0.5,0.8,0.7,0.7,0.3,0.3,west,4.1,No
2014/04/11,17:40,0.7,0.5,0.8,0.7,0.7,0.3,0.3,west-northwest,3.5,No
2014/04/11,17:50,0.7,0.5,0.8,0.7,0.7,0.3,0.3,northwest,5.4,No
2014/04/11,18:00,0.7,0.5,0.8,0.7,0.7,0.3,0.3,west-northwest,3.7,No
2014/04/11,18:10,0.7,0.5,0.8,0.7,0.7,0.3,0.3,west-northwest,4.0,No
2014/04/11,18:20,0.7,0.5,0.8,0.7,0.7,0.3,0.3,northwest,2.3,No
2014/04/11,18:30,0.7,0.5,0.8,0.7,0.7,0.3,0.3,northwest,1.4,No
2014/04/11,18:40,0.7,0.5,0.8,0.7,0.7,0.3,0.3,north,1.9,No
2014/04/11,18:50,0.7,0.5,0.8,0.7,0.7,0.3,0.3,north-northwest,0.8,No
2014/04/11,19:00,0.7,0.5,0.8,0.7,0.7,0.3,0.3,north,1.9,No
2014/04/11,19:10,0.7,0.5,0.8,0.7,0.7,0.3,0.3,north,1.5,No
2014/04/11,19:20,0.7,0.5,0.8,0.7,0.7,0.3,0.3,north,2.3,No
2014/04/11,19:30,0.7,0.5,0.8,0.7,0.7,0.3,0.3,north,1.4,No
2014/04/11,19:40,0.7,0.5,0.8,0.7,0.7,0.3,0.3,north,1.3,No
2014/04/11,19:50,0.7,0.5,0.8,0.7,0.7,0.3,0.3,north-northeast,1.1,No
2014/04/11,20:00,0.7,0.5,0.8,0.7,0.7,0.3,0.3,-,CALM,No
2014/04/11,20:10,0.7,0.5,0.8,0.7,0.7,0.3,0.3,-,CALM,No
2014/04/11,20:20,0.7,0.5,0.8,0.7,0.7,0.3,0.3,-,CALM,No
2014/04/11,20:30,0.7,0.5,0.8,0.7,0.7,0.3,0.3,-,CALM,No
2014/04/11,20:40,0.7,0.5,0.8,0.7,0.7,0.3,0.3,north,1.2,No
2014/04/11,20:50,0.7,0.5,0.8,0.7,0.7,0.3,0.3,east,0.9,No
2014/04/11,21:00,0.7,0.5,0.8,0.7,0.7,0.3,0.3,north-northeast,0.8,No
2014/04/11,21:10,0.7,0.5,0.8,0.7,0.7,0.3,0.3,northeast,1.7,No
2014/04/11,21:20,0.7,0.5,0.8,0.7,0.7,0.3,0.3,-,CALM,No
2014/04/11,21:30,0.7,0.5,0.8,0.7,0.7,0.3,0.3,northeast,1.2,No
2014/04/11,21:40,0.7,0.5,0.8,0.7,0.7,0.3,0.3,north-northeast,1.4,No
2014/04/11,21:50,0.7,0.5,0.8,0.7,0.7,0.3,0.3,-,CALM,No
2014/04/11,22:00,0.7,0.5,0.8,0.7,0.7,0.3,0.3,northeast,0.6,No
2014/04/11,22:10,0.7,0.5,0.8,0.7,0.7,0.3,0.3,-,CALM,No
2014/04/11,22:20,0.7,0.5,0.8,0.7,0.7,0.3,0.3,southwest,1.4,No
2014/04/11,22:30,0.7,0.5,0.8,0.7,0.7,0.3,0.3,west,0.8,No
2014/04/11,22:40,0.7,0.5,0.8,0.7,0.7,0.3,0.3,west,1.4,No
2014/04/11,22:50,0.7,0.5,0.8,0.7,0.7,0.3,0.3,west-northwest,2.5,No
2014/04/11,23:00,0.7,0.5,0.8,0.7,0.7,0.3,0.3,north-northwest,0.8,No
2014/04/11,23:10,0.7,0.5,0.8,0.7,0.7,0.3,0.3,northwest,1.9,No
2014/04/11,23:20,0.7,0.5,0.8,0.7,0.7,0.3,0.3,north-northwest,1.8,No
2014/04/11,23:30,0.7,0.5,0.8,0.7,0.7,0.3,0.3,north-northwest,1.4,No
2014/04/11,23:40,0.7,0.5,0.8,0.7,0.7,0.3,0.3,northwest,1.6,No
2014/04/11,23:50,0.7,0.5,0.8,0.7,0.7,0.3,0.3,north,3.0,No
